User: anonymous   Login
Location: Hartman Creek State Park
(44.3257°N, 89.2134°W)
Time: 09:10:58
(UTC-05:00)
Language:

Terra - Orbit

View from above orbital plane
View from above orbital plane
View from above satellite
View from above satellite

Ground track
Ground track

The orbit data is extracted from the following two-line orbital elements,

1 25994U 99068A   17294.21355112 -.00001108  00000-0 -23585-3 0  9992
2 25994  98.2055   7.3983 0001276  69.7753 290.3526 14.57116188949026
Epoch (UTC): 21 October 2017 05:07:30
Eccentricity: 0.0001276
inclination: 98.2055°
perigee height: 701 km
apogee height: 703 km
right ascension of ascending node: 7.3983°
argument of perigee: 69.7753°
revolutions per day: 14.57116188
mean anomaly at epoch: 290.3526°
orbit number at epoch: 94902

The dashed part of the orbit path shows where the satellite is in the earth's shadow,  

DLR